| time (UTC) | temp C | wind direction | speed KPH | gust KPH | rain 1hr cm | rain 24hr cm | rain mn cm | humidity % | barometer mb |
| 20260906123109 | 23 | 39 | 0.0 | 0.0 | 0.00 | 0.00 | 0.00 | 99 | 1001.6 |
| 20260906122608 | 23 | 58 | 0.0 | 0.0 | 0.00 | 0.00 | 0.00 | 99 | 1001.4 |
| 20260906122104 | 23 | 62 | 0.0 | 0.0 | 0.00 | 0.00 | 0.00 | 99 | 1001.7 |
| 20260906121600 | 22 | 60 | 0.0 | 0.0 | 0.00 | 0.00 | 0.00 | 99 | 1001.6 |
| 20260906121057 | 22 | 55 | 0.0 | 0.0 | 0.00 | 0.00 | 0.00 | 99 | 1001.6 |
| 20260906120551 | 22 | 55 | 0.0 | 0.0 | 0.00 | 0.00 | 0.00 | 99 | 1001.3 |
| 20260906120048 | 22 | 58 | 0.0 | 0.0 | 0.00 | 0.00 | 0.00 | 99 | 1001.3 |
| 20260906115543 | 22 | 59 | 0.0 | 0.0 | 0.00 | 0.00 | 0.00 | 99 | 1001.3 |
| 20260906115038 | 22 | 60 | 0.0 | 0.0 | 0.00 | 0.00 | 0.00 | 99 | 1001.2 |
| 20260906114532 | 22 | 53 | 0.0 | 0.0 | 0.00 | 0.00 | 0.00 | 99 | 1001.0 |
| 20260906114028 | 22 | 58 | 0.0 | 0.0 | 0.00 | 0.00 | 0.00 | 99 | 1000.8 |
| 20260906113526 | 22 | 60 | 0.0 | 0.0 | 0.00 | 0.00 | 0.00 | 99 | 1000.7 |
| 20260906113022 | 22 | 59 | 0.0 | 0.0 | 0.00 | 0.00 | 0.00 | 99 | 1000.8 |
| 20260906112517 | 22 | 62 | 0.0 | 0.0 | 0.00 | 0.00 | 0.00 | 99 | 1000.5 |
| 20260906112013 | 22 | 59 | 0.0 | 0.0 | 0.00 | 0.00 | 0.00 | 98 | 1000.5 |
| 20260906111513 | 22 | 57 | 0.0 | 0.0 | 0.00 | 0.00 | 0.00 | 98 | 1000.6 |
| 20260906111008 | 22 | 64 | 0.0 | 0.0 | 0.00 | 0.00 | 0.00 | 98 | 1000.7 |
| 20260906110503 | 22 | 57 | 0.0 | 0.0 | 0.00 | 0.00 | 0.00 | 98 | 1000.6 |
| 20260906110002 | 22 | 64 | 0.0 | 1.6 | 0.00 | 0.00 | 0.00 | 98 | 1000.4 |
| 20260906105458 | 22 | 59 | 0.0 | 0.0 | 0.00 | 0.00 | 0.00 | 98 | 1000.4 |
| 20260906104953 | 22 | 61 | 0.0 | 0.0 | 0.00 | 0.00 | 0.00 | 98 | 1000.1 |
| 20260906104452 | 22 | 61 | 0.0 | 0.0 | 0.00 | 0.00 | 0.00 | 98 | 1000.3 |
| 20260906103951 | 22 | 57 | 0.0 | 0.0 | 0.00 | 0.00 | 0.00 | 98 | 1000.4 |
| 20260906103449 | 22 | 57 | 0.0 | 1.6 | 0.00 | 0.00 | 0.00 | 98 | 1000.3 |
| 20260906102944 | 22 | 58 | 0.0 | 0.0 | 0.00 | 0.00 | 0.00 | 98 | 1000.6 |
| 20260906102445 | 22 | 60 | 0.0 | 0.0 | 0.00 | 0.00 | 0.00 | 97 | 1000.3 |
| 20260906101939 | 22 | 41 | 0.0 | 0.0 | 0.00 | 0.00 | 0.00 | 97 | 1000.3 |
| 20260906101434 | 22 | 73 | 1.6 | 3.2 | 0.00 | 0.00 | 0.00 | 97 | 1000.2 |
| 20260906100930 | 22 | 59 | 0.0 | 0.0 | 0.00 | 0.00 | 0.00 | 97 | 1000.1 |
| 20260906100430 | 22 | 59 | 0.0 | 0.0 | 0.00 | 0.00 | 0.00 | 97 | 1000.2 |
| 20260906095924 | 22 | 46 | 0.0 | 0.0 | 0.00 | 0.00 | 0.00 | 96 | 1000.0 |
| 20260906095420 | 22 | 55 | 0.0 | 1.6 | 0.00 | 0.00 | 0.00 | 96 | 1000.2 |
| 20260906094914 | 22 | 36 | 0.0 | 0.0 | 0.00 | 0.00 | 0.00 | 96 | 999.9 |
| 20260906094409 | 22 | 58 | 0.0 | 0.0 | 0.00 | 0.00 | 0.00 | 96 | 999.9 |
| 20260906093905 | 22 | 62 | 0.0 | 0.0 | 0.00 | 0.00 | 0.00 | 96 | 999.9 |
| 20260906093401 | 22 | 57 | 0.0 | 0.0 | 0.00 | 0.00 | 0.00 | 96 | 1000.0 |
| 20260906092900 | 22 | 57 | 0.0 | 0.0 | 0.00 | 0.00 | 0.00 | 95 | 999.8 |
| 20260906092355 | 23 | 55 | 0.0 | 0.0 | 0.00 | 0.00 | 0.00 | 95 | 1000.1 |
| 20260906091850 | 23 | 65 | 0.0 | 0.0 | 0.00 | 0.00 | 0.00 | 95 | 1000.1 |
| 20260906091347 | 23 | 47 | 0.0 | 1.6 | 0.00 | 0.00 | 0.00 | 95 | 999.9 |
| 20260906090843 | 23 | 56 | 0.0 | 0.0 | 0.00 | 0.00 | 0.00 | 95 | 999.9 |
| 20260906090342 | 23 | 45 | 0.0 | 0.0 | 0.00 | 0.00 | 0.00 | 94 | 999.9 |
| 20260906085837 | 23 | 59 | 0.0 | 0.0 | 0.00 | 0.00 | 0.00 | 94 | 999.6 |
| 20260906085336 | 23 | 56 | 0.0 | 0.0 | 0.00 | 0.00 | 0.00 | 94 | 999.7 |
| 20260906084830 | 23 | 51 | 0.0 | 0.0 | 0.00 | 0.00 | 0.00 | 93 | 999.5 |
| 20260906084330 | 23 | 63 | 0.0 | 0.0 | 0.00 | 0.00 | 0.00 | 93 | 999.7 |
| 20260906083819 | 23 | 58 | 0.0 | 0.0 | 0.00 | 0.00 | 0.00 | 92 | 999.6 |
| 20260906083315 | 23 | 55 | 0.0 | 0.0 | 0.00 | 0.00 | 0.00 | 92 | 999.6 |
| 20260906082809 | 23 | 61 | 0.0 | 0.0 | 0.00 | 0.00 | 0.00 | 92 | 999.6 |
| 20260906082306 | 23 | 35 | 0.0 | 1.6 | 0.00 | 0.00 | 0.00 | 92 | 999.6 |
| 20260906081800 | 24 | 56 | 0.0 | 0.0 | 0.00 | 0.00 | 0.00 | 91 | 999.7 |
| 20260906081255 | 24 | 64 | 0.0 | 1.6 | 0.00 | 0.00 | 0.00 | 91 | 999.9 |
| 20260906080751 | 24 | 65 | 0.0 | 0.0 | 0.00 | 0.00 | 0.00 | 91 | 999.6 |
| 20260906080248 | 24 | 60 | 1.6 | 1.6 | 0.00 | 0.00 | 0.00 | 91 | 999.7 |
| 20260906075741 | 25 | 57 | 1.6 | 1.6 | 0.00 | 0.00 | 0.00 | 91 | 999.8 |
| 20260906075241 | 25 | 63 | 0.0 | 0.0 | 0.00 | 0.00 | 0.00 | 91 | 999.5 |
| 20260906074737 | 25 | 67 | 0.0 | 0.0 | 0.00 | 0.00 | 0.00 | 91 | 1000.0 |
| 20260906074231 | 25 | 60 | 0.0 | 0.0 | 0.00 | 0.00 | 0.00 | 91 | 999.8 |
| 20260906073730 | 25 | 64 | 0.0 | 0.0 | 0.00 | 0.00 | 0.00 | 91 | 1000.0 |
| 20260906073225 | 25 | 58 | 0.0 | 1.6 | 0.00 | 0.00 | 0.00 | 90 | 1000.0 |
| 20260906072721 | 25 | 56 | 0.0 | 0.0 | 0.00 | 0.00 | 0.00 | 90 | 999.9 |
| 20260906072217 | 25 | 63 | 0.0 | 0.0 | 0.00 | 0.00 | 0.00 | 90 | 999.9 |
| 20260906071713 | 25 | 55 | 0.0 | 0.0 | 0.00 | 0.00 | 0.00 | 89 | 1000.0 |
| 20260906071212 | 25 | 57 | 0.0 | 1.6 | 0.00 | 0.00 | 0.00 | 89 | 999.9 |
| 20260906070709 | 25 | 64 | 0.0 | 0.0 | 0.00 | 0.00 | 0.00 | 89 | 999.9 |
| 20260906070204 | 25 | 60 | 0.0 | 0.0 | 0.00 | 0.00 | 0.00 | 88 | 999.8 |
| 20260906065704 | 25 | 61 | 0.0 | 0.0 | 0.00 | 0.00 | 0.00 | 88 | 999.9 |
| 20260906065159 | 25 | 62 | 0.0 | 0.0 | 0.00 | 0.00 | 0.00 | 87 | 999.8 |
| 20260906064655 | 26 | 64 | 0.0 | 0.0 | 0.00 | 0.00 | 0.00 | 87 | 999.7 |
| 20260906064150 | 26 | 65 | 0.0 | 0.0 | 0.00 | 0.00 | 0.00 | 86 | 999.6 |
| 20260906063645 | 26 | 65 | 0.0 | 0.0 | 0.00 | 0.00 | 0.00 | 86 | 999.7 |
| 20260906063141 | 26 | 62 | 1.6 | 1.6 | 0.00 | 0.00 | 0.00 | 85 | 999.3 |
| 20260906062636 | 26 | 67 | 0.0 | 0.0 | 0.00 | 0.00 | 0.00 | 85 | 999.5 |
| 20260906062135 | 26 | 66 | 1.6 | 3.2 | 0.00 | 0.00 | 0.00 | 85 | 999.8 |
| 20260906061632 | 26 | 64 | 0.0 | 1.6 | 0.00 | 0.00 | 0.00 | 85 | 999.7 |
| 20260906061131 | 26 | 70 | 0.0 | 1.6 | 0.00 | 0.00 | 0.00 | 85 | 999.5 |
| 20260906060628 | 26 | 69 | 0.0 | 0.0 | 0.00 | 0.00 | 0.00 | 85 | 999.7 |
| 20260906060125 | 26 | 74 | 1.6 | 1.6 | 0.00 | 0.00 | 0.00 | 85 | 999.8 |
| 20260906055620 | 26 | 67 | 0.0 | 0.0 | 0.00 | 0.00 | 0.00 | 85 | 999.8 |
| 20260906055115 | 26 | 71 | 0.0 | 0.0 | 0.00 | 0.00 | 0.00 | 85 | 999.7 |
| 20260906054610 | 27 | 63 | 0.0 | 0.0 | 0.00 | 0.00 | 0.00 | 85 | 999.7 |
| 20260906054105 | 27 | 71 | 0.0 | 1.6 | 0.00 | 0.00 | 0.00 | 84 | 999.7 |
| 20260906053602 | 27 | 59 | 0.0 | 0.0 | 0.00 | 0.00 | 0.00 | 84 | 999.7 |
| 20260906053057 | 27 | 61 | 0.0 | 0.0 | 0.00 | 0.00 | 0.00 | 83 | 999.7 |
| 20260906052552 | 27 | 73 | 0.0 | 1.6 | 0.00 | 0.00 | 0.00 | 83 | 999.8 |
| 20260906052050 | 27 | 68 | 0.0 | 0.0 | 0.00 | 0.00 | 0.00 | 84 | 999.8 |
| 20260906051545 | 27 | 73 | 0.0 | 1.6 | 0.00 | 0.00 | 0.00 | 84 | 999.8 |
| 20260906051040 | 27 | 68 | 1.6 | 1.6 | 0.00 | 0.00 | 0.00 | 84 | 999.7 |
| 20260906050535 | 27 | 65 | 0.0 | 1.6 | 0.00 | 0.00 | 0.00 | 85 | 999.8 |
| 20260906050030 | 27 | 64 | 0.0 | 1.6 | 0.00 | 0.00 | 0.00 | 85 | 999.6 |
| 20260906045528 | 27 | 79 | 0.0 | 0.0 | 0.00 | 0.00 | 0.00 | 84 | 999.7 |
| 20260906045024 | 28 | 66 | 1.6 | 1.6 | 0.00 | 0.00 | 0.00 | 84 | 999.6 |
| 20260906044520 | 28 | 61 | 0.0 | 0.0 | 0.00 | 0.00 | 0.00 | 84 | 999.5 |
| 20260906044015 | 28 | 57 | 0.0 | 1.6 | 0.00 | 0.00 | 0.00 | 85 | 999.5 |
| 20260906043511 | 28 | 58 | 1.6 | 1.6 | 0.00 | 0.00 | 0.00 | 85 | 999.2 |
| 20260906043007 | 28 | 57 | 0.0 | 1.6 | 0.00 | 0.00 | 0.00 | 85 | 999.3 |
| 20260906042506 | 28 | 67 | 0.0 | 0.0 | 0.00 | 0.00 | 0.00 | 85 | 999.3 |
| 20260906042005 | 28 | 71 | 0.0 | 0.0 | 0.00 | 0.00 | 0.00 | 84 | 999.1 |
| 20260906041502 | 28 | 59 | 1.6 | 1.6 | 0.00 | 0.00 | 0.00 | 84 | 999.1 |
| 20260906041001 | 29 | 56 | 0.0 | 0.0 | 0.00 | 0.00 | 0.00 | 83 | 999.2 |
| 20260906040456 | 29 | 65 | 1.6 | 1.6 | 0.00 | 0.00 | 0.00 | 83 | 998.9 |
| 20260906035952 | 29 | 71 | 0.0 | 1.6 | 0.00 | 0.00 | 0.00 | 83 | 999.0 |
| 20260906035447 | 30 | 65 | 0.0 | 1.6 | 0.00 | 0.00 | 0.00 | 82 | 999.0 |
| 20260906034942 | 30 | 59 | 3.2 | 3.2 | 0.00 | 0.00 | 0.00 | 82 | 998.8 |
| 20260906034437 | 30 | 75 | 1.6 | 1.6 | 0.00 | 0.00 | 0.00 | 81 | 999.0 |
| 20260906033932 | 30 | 66 | 1.6 | 3.2 | 0.00 | 0.00 | 0.00 | 81 | 998.9 |
| 20260906033426 | 30 | 61 | 0.0 | 0.0 | 0.00 | 0.00 | 0.00 | 80 | 998.6 |
| 20260906032922 | 30 | 61 | 0.0 | 0.0 | 0.00 | 0.00 | 0.00 | 80 | 998.6 |
| 20260906032418 | 30 | 60 | 0.0 | 0.0 | 0.00 | 0.00 | 0.00 | 80 | 998.4 |
| 20260906031913 | 30 | 65 | 0.0 | 0.0 | 0.00 | 0.00 | 0.00 | 79 | 998.5 |
| 20260906031408 | 30 | 72 | 0.0 | 1.6 | 0.00 | 0.00 | 0.00 | 79 | 998.6 |
| 20260906030903 | 30 | 63 | 1.6 | 3.2 | 0.00 | 0.00 | 0.00 | 79 | 998.6 |
| 20260906030358 | 30 | 66 | 0.0 | 0.0 | 0.00 | 0.00 | 0.00 | 78 | 998.5 |
| 20260906025853 | 30 | 70 | 0.0 | 1.6 | 0.00 | 0.00 | 0.00 | 78 | 998.4 |
| 20260906025347 | 30 | 55 | 0.0 | 0.0 | 0.00 | 0.00 | 0.00 | 77 | 998.1 |
| 20260906024846 | 30 | 56 | 0.0 | 0.0 | 0.00 | 0.00 | 0.00 | 77 | 998.1 |
| 20260906024345 | 30 | 63 | 0.0 | 1.6 | 0.00 | 0.00 | 0.00 | 77 | 998.2 |
| 20260906023841 | 31 | 69 | 0.0 | 0.0 | 0.00 | 0.00 | 0.00 | 77 | 998.1 |
| 20260906023337 | 31 | 60 | 0.0 | 0.0 | 0.00 | 0.00 | 0.00 | 76 | 998.1 |
| 20260906022832 | 31 | 63 | 0.0 | 0.0 | 0.00 | 0.00 | 0.00 | 76 | 998.0 |
| 20260906022326 | 31 | 63 | 0.0 | 0.0 | 0.00 | 0.00 | 0.00 | 76 | 998.1 |
| 20260906021822 | 31 | 71 | 0.0 | 0.0 | 0.00 | 0.00 | 0.00 | 76 | 997.9 |
| 20260906021321 | 31 | 63 | 0.0 | 0.0 | 0.00 | 0.00 | 0.00 | 75 | 997.7 |
| 20260906020816 | 31 | 68 | 0.0 | 0.0 | 0.00 | 0.00 | 0.00 | 75 | 997.8 |
| 20260906020315 | 31 | 63 | 0.0 | 1.6 | 0.00 | 0.00 | 0.00 | 75 | 997.7 |
| 20260906015810 | 31 | 65 | 0.0 | 0.0 | 0.00 | 0.00 | 0.00 | 74 | 997.7 |
| 20260906015308 | 31 | 71 | 0.0 | 0.0 | 0.00 | 0.00 | 0.00 | 74 | 997.7 |
| 20260906014803 | 31 | 59 | 0.0 | 0.0 | 0.00 | 0.00 | 0.00 | 73 | 997.7 |
| 20260906014259 | 31 | 68 | 0.0 | 0.0 | 0.00 | 0.00 | 0.00 | 73 | 997.4 |
| 20260906013754 | 31 | 67 | 1.6 | 1.6 | 0.00 | 0.00 | 0.00 | 73 | 997.6 |
| 20260906013249 | 31 | 61 | 0.0 | 0.0 | 0.00 | 0.00 | 0.00 | 73 | 997.3 |
| 20260906012745 | 31 | 64 | 0.0 | 0.0 | 0.00 | 0.00 | 0.00 | 73 | 997.4 |
| 20260906012240 | 31 | 68 | 0.0 | 1.6 | 0.00 | 0.00 | 0.00 | 73 | 997.3 |
| 20260906011735 | 31 | 62 | 0.0 | 0.0 | 0.00 | 0.00 | 0.00 | 73 | 997.1 |
| 20260906011234 | 31 | 62 | 0.0 | 0.0 | 0.00 | 0.00 | 0.00 | 72 | 997.5 |
| 20260906010730 | 31 | 62 | 0.0 | 0.0 | 0.00 | 0.00 | 0.00 | 72 | 997.3 |
| 20260906010226 | 31 | 61 | 0.0 | 0.0 | 0.00 | 0.00 | 0.00 | 71 | 997.1 |
| 20260906005721 | 32 | 56 | 0.0 | 0.0 | 0.00 | 0.00 | 0.00 | 71 | 997.3 |
| 20260906005220 | 32 | 59 | 0.0 | 0.0 | 0.00 | 0.00 | 0.00 | 70 | 996.9 |
| 20260906004720 | 32 | 56 | 0.0 | 0.0 | 0.00 | 0.00 | 0.00 | 70 | 997.0 |
| 20260906004215 | 32 | 59 | 0.0 | 0.0 | 0.00 | 0.00 | 0.00 | 70 | 997.1 |
| 20260906003710 | 32 | 59 | 0.0 | 0.0 | 0.00 | 0.00 | 0.00 | 69 | 996.9 |
| 20260906003206 | 32 | 60 | 0.0 | 0.0 | 0.00 | 0.00 | 0.00 | 69 | 997.2 |
| 20260906002706 | 32 | 59 | 0.0 | 0.0 | 0.00 | 0.00 | 0.00 | 69 | 997.1 |
| 20260906002201 | 32 | 61 | 0.0 | 0.0 | 0.00 | 0.00 | 0.00 | 68 | 997.2 |
| 20260906001656 | 32 | 59 | 0.0 | 0.0 | 0.00 | 0.00 | 0.00 | 68 | 997.1 |
| 20260906001155 | 32 | 64 | 0.0 | 0.0 | 0.00 | 0.00 | 0.00 | 68 | 997.2 |
| 20260906000651 | 32 | 64 | 0.0 | 0.0 | 0.00 | 0.00 | 0.00 | 68 | 997.2 |
| 20260906000146 | 32 | 61 | 0.0 | 0.0 | 0.00 | 0.00 | 0.00 | 67 | 997.1 |
| 20260905235645 | 33 | 62 | 0.0 | 0.0 | 0.00 | 0.00 | 0.00 | 66 | 997.3 |
| 20260905235141 | 33 | 61 | 0.0 | 0.0 | 0.00 | 0.00 | 0.00 | 66 | 997.1 |
| 20260905234636 | 33 | 60 | 0.0 | 0.0 | 0.00 | 0.00 | 0.00 | 65 | 997.0 |
| 20260905234131 | 33 | 59 | 0.0 | 0.0 | 0.00 | 0.00 | 0.00 | 65 | 997.2 |
| 20260905233626 | 33 | 62 | 0.0 | 0.0 | 0.00 | 0.00 | 0.00 | 64 | 997.2 |
| 20260905233120 | 33 | 59 | 0.0 | 0.0 | 0.00 | 0.00 | 0.00 | 64 | 997.0 |
| 20260905232616 | 33 | 58 | 0.0 | 0.0 | 0.00 | 0.00 | 0.00 | 63 | 997.1 |
| 20260905232111 | 33 | 58 | 0.0 | 0.0 | 0.00 | 0.00 | 0.00 | 63 | 996.9 |
| 20260905231606 | 33 | 58 | 0.0 | 0.0 | 0.00 | 0.00 | 0.00 | 63 | 997.0 |
| 20260905231102 | 34 | 59 | 0.0 | 0.0 | 0.00 | 0.00 | 0.00 | 62 | 996.9 |
| 20260905230603 | 34 | 62 | 0.0 | 0.0 | 0.00 | 0.00 | 0.00 | 62 | 996.9 |
| 20260905230100 | 34 | 62 | 0.0 | 0.0 | 0.00 | 0.00 | 0.00 | 62 | 996.9 |
| 20260905225554 | 34 | 65 | 0.0 | 0.0 | 0.00 | 0.00 | 0.00 | 61 | 997.1 |
| 20260905225050 | 35 | 59 | 0.0 | 0.0 | 0.00 | 0.00 | 0.00 | 59 | 997.2 |
| 20260905224550 | 35 | 50 | 0.0 | 0.0 | 0.00 | 0.00 | 0.00 | 60 | 997.0 |
| 20260905224049 | 35 | 61 | 0.0 | 0.0 | 0.00 | 0.00 | 0.00 | 59 | 996.8 |
| 20260905223547 | 35 | 58 | 0.0 | 0.0 | 0.00 | 0.00 | 0.00 | 58 | 996.7 |
| 20260905223042 | 36 | 55 | 1.6 | 3.2 | 0.00 | 0.00 | 0.00 | 57 | 996.8 |
| 20260905222543 | 36 | 58 | 0.0 | 1.6 | 0.00 | 0.00 | 0.00 | 56 | 996.9 |
| 20260905222038 | 36 | 57 | 0.0 | 0.0 | 0.00 | 0.00 | 0.00 | 55 | 996.8 |
| 20260905221534 | 36 | 341 | 4.8 | 4.8 | 0.00 | 0.00 | 0.00 | 54 | 996.8 |
| 20260905221030 | 36 | 21 | 6.4 | 8.0 | 0.00 | 0.00 | 0.00 | 54 | 997.0 |
| 20260905220526 | 36 | 49 | 4.8 | 4.8 | 0.00 | 0.00 | 0.00 | 53 | 996.7 |
| 20260905220022 | 37 | 42 | 4.8 | 4.8 | 0.00 | 0.00 | 0.00 | 53 | 996.8 |
| 20260905215521 | 37 | 358 | 3.2 | 3.2 | 0.00 | 0.00 | 0.00 | 51 | 996.8 |
| 20260905215017 | 37 | 18 | 0.0 | 1.6 | 0.00 | 0.00 | 0.00 | 52 | 997.0 |
| 20260905214513 | 37 | 63 | 0.0 | 0.0 | 0.00 | 0.00 | 0.00 | 51 | 997.1 |
| 20260905214008 | 37 | 53 | 4.8 | 4.8 | 0.00 | 0.00 | 0.00 | 51 | 996.8 |
| 20260905213503 | 37 | 14 | 3.2 | 3.2 | 0.00 | 0.00 | 0.00 | 50 | 996.7 |
| 20260905212958 | 37 | 12 | 4.8 | 8.0 | 0.00 | 0.00 | 0.00 | 53 | 996.8 |
| 20260905212453 | 37 | 20 | 1.6 | 3.2 | 0.00 | 0.00 | 0.00 | 52 | 997.0 |
| 20260905211952 | 37 | 29 | 1.6 | 3.2 | 0.00 | 0.00 | 0.00 | 53 | 997.0 |
| 20260905211448 | 36 | 10 | 4.8 | 4.8 | 0.00 | 0.00 | 0.00 | 54 | 996.9 |
| 20260905210943 | 36 | 3 | 1.6 | 1.6 | 0.00 | 0.00 | 0.00 | 55 | 997.2 |
| 20260905210439 | 35 | 312 | 4.8 | 9.7 | 0.00 | 0.00 | 0.00 | 57 | 997.0 |
| 20260905205938 | 36 | 40 | 0.0 | 1.6 | 0.00 | 0.00 | 0.00 | 56 | 997.3 |
| 20260905205433 | 36 | 31 | 1.6 | 3.2 | 0.00 | 0.00 | 0.00 | 57 | 997.1 |
| 20260905204932 | 35 | 356 | 3.2 | 3.2 | 0.00 | 0.00 | 0.00 | 57 | 997.3 |
| 20260905204428 | 35 | 0 | 0.0 | 3.2 | 0.00 | 0.00 | 0.00 | 57 | 997.3 |
| 20260905203927 | 36 | 81 | 4.8 | 4.8 | 0.00 | 0.00 | 0.00 | 54 | 997.5 |
| 20260905203422 | 36 | 37 | 1.6 | 1.6 | 0.00 | 0.00 | 0.00 | 53 | 997.2 |
| 20260905202918 | 37 | 69 | 6.4 | 9.7 | 0.00 | 0.00 | 0.00 | 52 | 997.3 |
| 20260905202413 | 37 | 50 | 3.2 | 4.8 | 0.00 | 0.00 | 0.00 | 50 | 997.4 |
| 20260905201909 | 37 | 15 | 4.8 | 8.0 | 0.00 | 0.00 | 0.00 | 49 | 997.3 |
| 20260905201404 | 37 | 29 | 1.6 | 1.6 | 0.00 | 0.00 | 0.00 | 47 | 997.2 |
| 20260905200903 | 38 | 66 | 0.0 | 0.0 | 0.00 | 0.00 | 0.00 | 47 | 997.2 |
| 20260905200359 | 38 | 68 | 0.0 | 0.0 | 0.00 | 0.00 | 0.00 | 47 | 997.2 |
| 20260905195857 | 39 | 351 | 3.2 | 3.2 | 0.00 | 0.00 | 0.00 | 45 | 997.4 |
| 20260905195353 | 38 | 247 | 4.8 | 4.8 | 0.00 | 0.00 | 0.00 | 45 | 997.7 |
| 20260905194848 | 40 | 41 | 3.2 | 8.0 | 0.00 | 0.00 | 0.00 | 44 | 997.3 |
| 20260905194348 | 40 | 54 | 0.0 | 0.0 | 0.00 | 0.00 | 0.00 | 45 | 997.6 |
| 20260905193848 | 38 | 27 | 3.2 | 4.8 | 0.00 | 0.00 | 0.00 | 46 | 997.6 |
| 20260905193342 | 38 | 8 | 3.2 | 3.2 | 0.00 | 0.00 | 0.00 | 46 | 997.6 |
| 20260905192838 | 38 | 32 | 4.8 | 4.8 | 0.00 | 0.00 | 0.00 | 46 | 997.5 |
| 20260905192334 | 38 | 351 | 4.8 | 4.8 | 0.00 | 0.00 | 0.00 | 46 | 997.6 |
| 20260905191833 | 38 | 30 | 3.2 | 3.2 | 0.00 | 0.00 | 0.00 | 46 | 997.9 |
| 20260905191332 | 38 | 14 | 3.2 | 4.8 | 0.00 | 0.00 | 0.00 | 46 | 997.9 |
| 20260905190831 | 38 | 10 | 6.4 | 11.3 | 0.00 | 0.00 | 0.00 | 46 | 997.8 |
| 20260905190325 | 38 | 331 | 6.4 | 9.7 | 0.00 | 0.00 | 0.00 | 46 | 998.0 |
| 20260905185824 | 38 | 19 | 8.0 | 9.7 | 0.00 | 0.00 | 0.00 | 46 | 997.8 |
| 20260905185319 | 38 | 3 | 6.4 | 9.7 | 0.00 | 0.00 | 0.00 | 44 | 997.9 |
| 20260905184818 | 38 | 306 | 1.6 | 1.6 | 0.00 | 0.00 | 0.00 | 44 | 998.0 |
| 20260905184317 | 38 | 322 | 4.8 | 8.0 | 0.00 | 0.00 | 0.00 | 46 | 998.0 |
| 20260905183816 | 38 | 352 | 1.6 | 1.6 | 0.00 | 0.00 | 0.00 | 45 | 998.2 |
| 20260905183312 | 38 | 293 | 1.6 | 3.2 | 0.00 | 0.00 | 0.00 | 46 | 998.3 |
| 20260905182806 | 38 | 295 | 6.4 | 8.0 | 0.00 | 0.00 | 0.00 | 47 | 998.4 |
| 20260905182306 | 37 | 51 | 0.0 | 0.0 | 0.00 | 0.00 | 0.00 | 47 | 998.4 |
| 20260905181801 | 38 | 340 | 3.2 | 3.2 | 0.00 | 0.00 | 0.00 | 45 | 998.6 |
| 20260905181301 | 38 | 325 | 4.8 | 8.0 | 0.00 | 0.00 | 0.00 | 44 | 998.6 |
| 20260905180754 | 39 | 30 | 4.8 | 4.8 | 0.00 | 0.00 | 0.00 | 45 | 998.5 |
| 20260905180250 | 38 | 297 | 3.2 | 4.8 | 0.00 | 0.00 | 0.00 | 48 | 998.6 |
| 20260905175744 | 38 | 84 | 1.6 | 1.6 | 0.00 | 0.00 | 0.00 | 47 | 998.6 |
| 20260905175239 | 38 | 1 | 4.8 | 4.8 | 0.00 | 0.00 | 0.00 | 49 | 998.6 |
| 20260905174734 | 38 | 46 | 1.6 | 1.6 | 0.00 | 0.00 | 0.00 | 50 | 998.6 |
| 20260905174230 | 39 | 357 | 3.2 | 4.8 | 0.00 | 0.00 | 0.00 | 50 | 998.6 |
| 20260905173726 | 38 | 54 | 0.0 | 1.6 | 0.00 | 0.00 | 0.00 | 50 | 998.7 |
| 20260905173221 | 37 | 62 | 0.0 | 0.0 | 0.00 | 0.00 | 0.00 | 51 | 998.8 |
| 20260905172715 | 37 | 34 | 0.0 | 0.0 | 0.00 | 0.00 | 0.00 | 51 | 998.9 |
| 20260905172209 | 37 | 89 | 0.0 | 0.0 | 0.00 | 0.00 | 0.00 | 53 | 998.8 |
| 20260905171705 | 37 | 101 | 3.2 | 3.2 | 0.00 | 0.00 | 0.00 | 54 | 998.9 |
| 20260905171201 | 37 | 330 | 3.2 | 3.2 | 0.00 | 0.00 | 0.00 | 54 | 998.8 |
| 20260905170658 | 38 | 91 | 1.6 | 1.6 | 0.00 | 0.00 | 0.00 | 53 | 998.8 |
| 20260905170157 | 37 | 74 | 0.0 | 1.6 | 0.00 | 0.00 | 0.00 | 53 | 999.2 |
| 20260905165652 | 38 | 340 | 1.6 | 1.6 | 0.00 | 0.00 | 0.00 | 55 | 999.2 |
| 20260905165147 | 37 | 2 | 0.0 | 0.0 | 0.00 | 0.00 | 0.00 | 53 | 999.2 |
| 20260905164642 | 37 | 294 | 1.6 | 3.2 | 0.00 | 0.00 | 0.00 | 53 | 999.3 |
| 20260905164141 | 37 | 124 | 0.0 | 1.6 | 0.00 | 0.00 | 0.00 | 54 | 999.3 |
| 20260905163638 | 36 | 0 | 0.0 | 1.6 | 0.00 | 0.00 | 0.00 | 56 | 999.3 |
| 20260905163134 | 36 | 102 | 1.6 | 1.6 | 0.00 | 0.00 | 0.00 | 58 | 999.4 |
| 20260905162630 | 36 | 45 | 0.0 | 0.0 | 0.00 | 0.00 | 0.00 | 56 | 999.4 |
| 20260905162129 | 36 | 69 | 0.0 | 0.0 | 0.00 | 0.00 | 0.00 | 55 | 999.8 |
| 20260905161629 | 35 | 40 | 3.2 | 3.2 | 0.00 | 0.00 | 0.00 | 59 | 999.5 |
| 20260905161127 | 35 | 29 | 0.0 | 1.6 | 0.00 | 0.00 | 0.00 | 59 | 999.6 |
| 20260905160627 | 35 | 18 | 1.6 | 1.6 | 0.00 | 0.00 | 0.00 | 60 | 999.5 |
| 20260905160121 | 35 | 52 | 0.0 | 1.6 | 0.00 | 0.00 | 0.00 | 61 | 999.7 |
| 20260905155621 | 35 | 44 | 1.6 | 3.2 | 0.00 | 0.00 | 0.00 | 60 | 999.6 |
| 20260905155119 | 35 | 12 | 1.6 | 3.2 | 0.00 | 0.00 | 0.00 | 62 | 999.4 |
| 20260905154614 | 35 | 77 | 0.0 | 0.0 | 0.00 | 0.00 | 0.00 | 62 | 999.8 |
| 20260905154110 | 34 | 33 | 0.0 | 0.0 | 0.00 | 0.00 | 0.00 | 63 | 999.6 |
| 20260905153606 | 34 | 319 | 4.8 | 4.8 | 0.00 | 0.00 | 0.00 | 64 | 999.7 |
| 20260905153100 | 33 | 48 | 1.6 | 1.6 | 0.00 | 0.00 | 0.00 | 64 | 999.5 |
| 20260905152555 | 34 | 96 | 1.6 | 1.6 | 0.00 | 0.00 | 0.00 | 65 | 999.5 |
| 20260905152050 | 33 | 80 | 1.6 | 1.6 | 0.00 | 0.00 | 0.00 | 65 | 999.7 |
| 20260905151545 | 33 | 41 | 0.0 | 0.0 | 0.00 | 0.00 | 0.00 | 66 | 999.5 |
| 20260905151040 | 33 | 17 | 1.6 | 1.6 | 0.00 | 0.00 | 0.00 | 67 | 999.8 |
| 20260905150536 | 32 | 73 | 0.0 | 1.6 | 0.00 | 0.00 | 0.00 | 69 | 999.5 |
| 20260905150033 | 32 | 21 | 1.6 | 1.6 | 0.00 | 0.00 | 0.00 | 68 | 999.4 |
| 20260905145527 | 32 | 60 | 0.0 | 0.0 | 0.00 | 0.00 | 0.00 | 70 | 999.5 |
| 20260905145027 | 31 | 11 | 1.6 | 3.2 | 0.00 | 0.00 | 0.00 | 72 | 999.5 |
| 20260905144522 | 31 | 43 | 3.2 | 3.2 | 0.00 | 0.00 | 0.00 | 73 | 999.7 |
| 20260905144021 | 31 | 64 | 0.0 | 1.6 | 0.00 | 0.00 | 0.00 | 74 | 999.7 |
| 20260905143520 | 31 | 322 | 1.6 | 3.2 | 0.00 | 0.00 | 0.00 | 74 | 999.8 |
| 20260905143015 | 31 | 40 | 0.0 | 0.0 | 0.00 | 0.00 | 0.00 | 75 | 999.6 |
| 20260905142514 | 30 | 38 | 0.0 | 1.6 | 0.00 | 0.00 | 0.00 | 75 | 999.5 |
| 20260905142009 | 30 | 27 | 0.0 | 1.6 | 0.00 | 0.00 | 0.00 | 76 | 999.5 |
| 20260905141503 | 30 | 25 | 1.6 | 1.6 | 0.00 | 0.00 | 0.00 | 76 | 999.4 |
| 20260905141000 | 30 | 43 | 0.0 | 0.0 | 0.00 | 0.00 | 0.00 | 75 | 999.5 |
| 20260905140455 | 30 | 69 | 0.0 | 0.0 | 0.00 | 0.00 | 0.00 | 75 | 999.7 |
| 20260905135953 | 30 | 52 | 0.0 | 0.0 | 0.00 | 0.00 | 0.00 | 75 | 999.6 |
| 20260905135449 | 30 | 78 | 0.0 | 0.0 | 0.00 | 0.00 | 0.00 | 77 | 999.4 |
| 20260905134944 | 30 | 81 | 0.0 | 0.0 | 0.00 | 0.00 | 0.00 | 77 | 999.6 |
| 20260905134444 | 29 | 63 | 0.0 | 0.0 | 0.00 | 0.00 | 0.00 | 78 | 999.7 |
| 20260905133943 | 29 | 96 | 0.0 | 1.6 | 0.00 | 0.00 | 0.00 | 77 | 999.9 |
| 20260905133438 | 28 | 84 | 0.0 | 0.0 | 0.00 | 0.00 | 0.00 | 78 | 999.7 |
| 20260905132938 | 28 | 79 | 0.0 | 0.0 | 0.00 | 0.00 | 0.00 | 78 | 999.7 |
| 20260905132433 | 28 | 61 | 0.0 | 0.0 | 0.00 | 0.00 | 0.00 | 79 | 999.4 |
| 20260905131928 | 28 | 71 | 0.0 | 0.0 | 0.00 | 0.00 | 0.00 | 80 | 999.8 |
| 20260905131424 | 28 | 72 | 0.0 | 0.0 | 0.00 | 0.00 | 0.00 | 80 | 999.7 |
| 20260905130923 | 27 | 69 | 0.0 | 0.0 | 0.00 | 0.00 | 0.00 | 81 | 999.6 |
| 20260905130418 | 27 | 72 | 0.0 | 0.0 | 0.00 | 0.00 | 0.00 | 83 | 999.8 |
| 20260905125918 | 27 | 88 | 0.0 | 1.6 | 0.00 | 0.00 | 0.00 | 84 | 999.6 |
| 20260905125413 | 27 | 70 | 0.0 | 0.0 | 0.00 | 0.00 | 0.00 | 83 | 999.7 |
| 20260905124908 | 27 | 72 | 0.0 | 0.0 | 0.00 | 0.00 | 0.00 | 83 | 999.5 |
| 20260905124405 | 27 | 83 | 1.6 | 1.6 | 0.00 | 0.00 | 0.00 | 84 | 999.3 |
| 20260905123904 | 27 | 81 | 0.0 | 0.0 | 0.00 | 0.00 | 0.00 | 85 | 999.5 |
| 20260905123401 | 26 | 76 | 0.0 | 0.0 | 0.00 | 0.00 | 0.00 | 85 | 999.3 |